• en France
  • Liste des pays
  • À 7 jours
  • Température de l'eau
  • Carte satellitaire
  • Carte météo
  • Widgets météo
  • user-avatar
    Se connecter

    Météo par heure à Boma

    Ce jour, 21 Novembre, Mardi

    Heure Température Précipitation Vent Pression Humidité
    00:00 +23°C° 0,1 mm 0 m/s 699 mmHg 75%
    01:00 +23°C° 0 mm 0 m/s 699 mmHg 75%
    02:00 +23°C° 0,6 mm 0 m/s 699 mmHg 79%
    03:00 +22°C° 0,6 mm 0 m/s 699 mmHg 83%
    04:00 +21°C° 0,6 mm 0 m/s 699 mmHg 87%
    05:00 +21°C° 0,1 mm 0 m/s 700 mmHg 87%
    06:00 +22°C° 0,1 mm 0 m/s 700 mmHg 87%
    07:00 +22°C° 0,1 mm 0 m/s 700 mmHg 86%
    08:00 +24°C° 0,2 mm 0 m/s 700 mmHg 76%
    09:00 +29°C° 0,2 mm 1 m/s 701 mmHg 66%
    10:00 +31°C° 0,2 mm 1 m/s 701 mmHg 56%
    11:00 +32°C° 0,1 mm 1 m/s 700 mmHg 49%
    12:00 +35°C° 0,1 mm 2 m/s 700 mmHg 42%
    13:00 +36°C° 0,1 mm 2 m/s 699 mmHg 35%
    14:00 +35°C° 0 mm 2 m/s 699 mmHg 38%
    15:00 +33°C° 0 mm 1 m/s 698 mmHg 42%
    16:00 +32°C° 0 mm 1 m/s 698 mmHg 45%
    17:00 +30°C° 0 mm 1 m/s 698 mmHg 50%
    18:00 +29°C° 0 mm 1 m/s 698 mmHg 55%
    19:00 +25°C° 0 mm 0 m/s 698 mmHg 61%
    20:00 +25°C° 0 mm 0 m/s 698 mmHg 62%
    21:00 +25°C° 0 mm 0 m/s 699 mmHg 64%
    22:00 +24°C° 0 mm 0 m/s 700 mmHg 66%
    23:00 +24°C° 0 mm 0 m/s 699 mmHg 68%

    Demain, 22 Novembre, Mercredi

    Heure Température Précipitation Vent Pression Humidité
    00:00 +23°C° 0 mm 0 m/s 699 mmHg 70%
    01:00 +23°C° 0 mm 0 m/s 699 mmHg 72%
    02:00 +22°C° 0 mm 0 m/s 699 mmHg 74%
    03:00 +22°C° 0 mm 0 m/s 698 mmHg 77%
    04:00 +21°C° 0 mm 0 m/s 698 mmHg 79%
    05:00 +21°C° 0 mm 0 m/s 698 mmHg 79%
    06:00 +22°C° 0 mm 0 m/s 699 mmHg 79%
    07:00 +22°C° 0 mm 0 m/s 699 mmHg 79%
    08:00 +25°C° 0 mm 0 m/s 700 mmHg 69%
    09:00 +28°C° 0 mm 0 m/s 700 mmHg 60%
    10:00 +33°C° 0 mm 1 m/s 701 mmHg 50%
    11:00 +34°C° 0,2 mm 1 m/s 700 mmHg 44%
    12:00 +35°C° 0,2 mm 1 m/s 700 mmHg 39%
    13:00 +36°C° 0,2 mm 1 m/s 699 mmHg 33%
    14:00 +35°C° 0 mm 1 m/s 698 mmHg 36%
    15:00 +34°C° 0 mm 1 m/s 698 mmHg 39%
    16:00 +33°C° 0 mm 1 m/s 697 mmHg 42%
    17:00 +31°C° 0 mm 1 m/s 697 mmHg 50%
    18:00 +29°C° 0 mm 1 m/s 697 mmHg 57%
    19:00 +26°C° 0 mm 1 m/s 698 mmHg 65%
    20:00 +26°C° 0 mm 1 m/s 698 mmHg 67%
    21:00 +24°C° 0 mm 0 m/s 699 mmHg 70%
    22:00 +23°C° 0 mm 0 m/s 699 mmHg 72%
    23:00 +23°C° 0,1 mm 0 m/s 699 mmHg 76%

    Après-demain, 23 Novembre, Jeudi

    Heure Température Précipitation Vent Pression Humidité
    00:00 +22°C° 0,1 mm 0 m/s 699 mmHg 79%
    01:00 +22°C° 0,1 mm 0 m/s 698 mmHg 83%
    02:00 +21°C° 0,3 mm 0 m/s 698 mmHg 87%
    03:00 +23°C° 0,3 mm 1 m/s 698 mmHg 91%
    04:00 +22°C° 0,3 mm 1 m/s 698 mmHg 95%
    05:00 +23°C° 0 mm 1 m/s 698 mmHg 95%
    06:00 +23°C° 0 mm 1 m/s 699 mmHg 94%
    07:00 +23°C° 0 mm 1 m/s 699 mmHg 94%
    08:00 +25°C° 0 mm 1 m/s 700 mmHg 87%
    09:00 +26°C° 0 mm 1 m/s 700 mmHg 80%
    10:00 +27°C° 0 mm 1 m/s 701 mmHg 73%
    11:00 +30°C° 0 mm 1 m/s 700 mmHg 62%
    12:00 +32°C° 0 mm 1 m/s 700 mmHg 52%
    13:00 +34°C° 0 mm 1 m/s 699 mmHg 41%
    14:00 +33°C° 0 mm 1 m/s 698 mmHg 41%
    15:00 +33°C° 0 mm 1 m/s 698 mmHg 41%
    16:00 +33°C° 0 mm 1 m/s 697 mmHg 41%
    17:00 +30°C° 0 mm 1 m/s 697 mmHg 52%
    18:00 +28°C° 0 mm 1 m/s 698 mmHg 62%
    19:00 +26°C° 0 mm 1 m/s 698 mmHg 73%
    20:00 +25°C° 0 mm 1 m/s 699 mmHg 78%
    21:00 +24°C° 0 mm 1 m/s 699 mmHg 84%
    22:00 +23°C° 0 mm 1 m/s 700 mmHg 89%
    23:00 +23°C° 0 mm 1 m/s 700 mmHg 92%

    24 Novembre, Vendredi

    Heure Température Précipitation Vent Pression Humidité
    00:00 +23°C° 0 mm 1 m/s 699 mmHg 94%
    01:00 +22°C° 0 mm 1 m/s 699 mmHg 97%
    02:00 +22°C° 0 mm 1 m/s 699 mmHg 96%
    03:00 +22°C° 0 mm 1 m/s 699 mmHg 95%
    04:00 +23°C° 0 mm 1 m/s 699 mmHg 93%
    05:00 +23°C° 0 mm 1 m/s 699 mmHg 92%
    06:00 +23°C° 0 mm 1 m/s 700 mmHg 90%
    07:00 +23°C° 0 mm 1 m/s 700 mmHg 88%
    08:00 +26°C° 0 mm 1 m/s 701 mmHg 74%
    09:00 +26°C° 0 mm 0 m/s 701 mmHg 60%
    10:00 +29°C° 0 mm 0 m/s 702 mmHg 45%
    11:00 +30°C° 0 mm 0 m/s 701 mmHg 38%
    12:00 +34°C° 0 mm 1 m/s 700 mmHg 31%
    13:00 +35°C° 0 mm 1 m/s 699 mmHg 24%
    14:00 +35°C° 0 mm 1 m/s 699 mmHg 23%
    15:00 +34°C° 0 mm 1 m/s 698 mmHg 23%
    16:00 +34°C° 0 mm 1 m/s 698 mmHg 23%
    17:00 +29°C° 0 mm 0 m/s 698 mmHg 29%
    18:00 +26°C° 0 mm 0 m/s 698 mmHg 35%
    19:00 +23°C° 0 mm 0 m/s 698 mmHg 41%
    20:00 +22°C° 0 mm 0 m/s 699 mmHg 47%
    21:00 +21°C° 0 mm 0 m/s 699 mmHg 52%
    22:00 +21°C° 0 mm 0 m/s 700 mmHg 58%
    23:00 +20°C° 0 mm 0 m/s 700 mmHg 61%

    25 Novembre, Samedi

    Heure Température Précipitation Vent Pression Humidité
    00:00 +20°C° 0 mm 0 m/s 699 mmHg 65%
    01:00 +19°C° 0 mm 0 m/s 699 mmHg 69%
    02:00 +19°C° 0 mm 0 m/s 699 mmHg 73%
    03:00 +19°C° 0 mm 0 m/s 699 mmHg 76%
    04:00 +19°C° 0 mm 0 m/s 699 mmHg 80%
    05:00 +19°C° 0 mm 0 m/s 699 mmHg 81%
    06:00 +19°C° 0 mm 0 m/s 700 mmHg 81%
    07:00 +20°C° 0 mm 0 m/s 700 mmHg 81%
    08:00 +22°C° 0 mm 0 m/s 701 mmHg 69%
    09:00 +27°C° 0 mm 1 m/s 701 mmHg 56%
    10:00 +30°C° 0 mm 1 m/s 702 mmHg 44%
    11:00 +32°C° 0 mm 1 m/s 701 mmHg 37%
    12:00 +33°C° 0 mm 1 m/s 701 mmHg 29%
    13:00 +35°C° 0 mm 1 m/s 700 mmHg 22%
    14:00 +34°C° 0 mm 1 m/s 700 mmHg 22%
    15:00 +34°C° 0 mm 1 m/s 699 mmHg 23%
    16:00 +31°C° 0 mm 0 m/s 699 mmHg 23%
    17:00 +28°C° 0 mm 0 m/s 699 mmHg 29%
    18:00 +26°C° 0 mm 0 m/s 699 mmHg 34%
    19:00 +23°C° 0 mm 0 m/s 699 mmHg 40%
    20:00 +22°C° 0 mm 0 m/s 700 mmHg 43%
    21:00 +21°C° 0 mm 0 m/s 700 mmHg 47%
    22:00 +21°C° 0 mm 0 m/s 700 mmHg 51%
    23:00 +20°C° 0 mm 0 m/s 700 mmHg 52%

    26 Novembre, Dimanche

    Heure Température Précipitation Vent Pression Humidité
    00:00 +20°C° 0 mm 0 m/s 700 mmHg 53%
    01:00 +19°C° 0 mm 0 m/s 700 mmHg 54%
    02:00 +19°C° 0 mm 0 m/s 700 mmHg 57%
    03:00 +18°C° 0 mm 0 m/s 700 mmHg 59%
    04:00 +18°C° 0 mm 0 m/s 700 mmHg 62%
    05:00 +18°C° 0 mm 0 m/s 700 mmHg 64%
    06:00 +19°C° 0 mm 0 m/s 701 mmHg 66%
    07:00 +19°C° 0 mm 0 m/s 701 mmHg 67%
    08:00 +22°C° 0 mm 0 m/s 702 mmHg 57%
    09:00 +27°C° 0 mm 1 m/s 702 mmHg 46%
    10:00 +30°C° 0 mm 1 m/s 702 mmHg 35%
    11:00 +32°C° 0 mm 1 m/s 702 mmHg 29%
    12:00 +33°C° 0 mm 1 m/s 701 mmHg 24%
    13:00 +34°C° 0 mm 1 m/s 701 mmHg 19%
    14:00 +34°C° 0 mm 1 m/s 700 mmHg 20%
    15:00 +34°C° 0 mm 1 m/s 700 mmHg 22%
    16:00 +33°C° 0 mm 1 m/s 699 mmHg 23%
    17:00 +31°C° 0 mm 1 m/s 699 mmHg 29%
    18:00 +28°C° 0 mm 1 m/s 700 mmHg 35%
    19:00 +23°C° 0 mm 0 m/s 700 mmHg 40%
    20:00 +23°C° 0 mm 0 m/s 700 mmHg 43%
    21:00 +22°C° 0 mm 0 m/s 700 mmHg 45%
    22:00 +21°C° 0 mm 0 m/s 701 mmHg 47%
    23:00 +21°C° 0 mm 0 m/s 701 mmHg 49%
    Voir plus